Year,Month,Day,Hour,Minute,Value (Times are PST for temperature in C)
2012,09,18,00,00,16.50
2012,09,18,00,01,16.40
2012,09,18,00,02,16.40
2012,09,18,00,03,16.40
2012,09,18,00,04,16.40
2012,09,18,00,05,16.40
2012,09,18,00,06,16.40
2012,09,18,00,07,16.40
2012,09,18,00,08,16.40
2012,09,18,00,09,16.40
2012,09,18,00,10,16.40
2012,09,18,00,11,16.40
2012,09,18,00,12,16.30
2012,09,18,00,13,16.30
2012,09,18,00,14,16.30
2012,09,18,00,15,16.30
2012,09,18,00,16,16.20
2012,09,18,00,17,16.20
2012,09,18,00,18,16.20
2012,09,18,00,19,16.10
2012,09,18,00,20,16.00
2012,09,18,00,21,16.00
2012,09,18,00,22,15.90
2012,09,18,00,23,15.80
2012,09,18,00,24,15.80
2012,09,18,00,25,15.70
2012,09,18,00,26,15.70
2012,09,18,00,27,15.70
2012,09,18,00,28,15.60
2012,09,18,00,29,15.60
2012,09,18,00,30,15.70
2012,09,18,00,31,15.70
2012,09,18,00,32,15.80
2012,09,18,00,33,15.80
2012,09,18,00,34,15.70
2012,09,18,00,35,15.70
2012,09,18,00,36,15.70
2012,09,18,00,37,15.60
2012,09,18,00,38,15.60
2012,09,18,00,39,15.50
2012,09,18,00,40,15.40
2012,09,18,00,41,15.40
2012,09,18,00,42,15.30
2012,09,18,00,43,15.20
2012,09,18,00,44,15.10
2012,09,18,00,45,15.00
2012,09,18,00,46,14.90
2012,09,18,00,47,14.90
2012,09,18,00,48,14.90
2012,09,18,00,49,14.90
2012,09,18,00,50,15.00
2012,09,18,00,51,15.10
2012,09,18,00,52,15.20
2012,09,18,00,53,15.30
2012,09,18,00,54,15.40
2012,09,18,00,55,15.50
2012,09,18,00,56,15.60
2012,09,18,00,57,15.70
2012,09,18,00,58,15.70
2012,09,18,00,59,15.70
2012,09,18,01,00,15.70
2012,09,18,01,01,15.70
2012,09,18,01,02,15.70
2012,09,18,01,03,15.70
2012,09,18,01,04,15.70
2012,09,18,01,05,15.70
2012,09,18,01,06,15.70
2012,09,18,01,07,15.60
2012,09,18,01,08,15.60
2012,09,18,01,09,15.50
2012,09,18,01,10,15.50
2012,09,18,01,11,15.40
2012,09,18,01,12,15.50
2012,09,18,01,13,15.60
2012,09,18,01,14,15.60
2012,09,18,01,15,15.70
2012,09,18,01,16,15.80
2012,09,18,01,17,16.00
2012,09,18,01,18,16.10
2012,09,18,01,19,16.30
2012,09,18,01,20,16.40
2012,09,18,01,21,16.60
2012,09,18,01,22,16.60
2012,09,18,01,23,16.70
2012,09,18,01,24,16.70
2012,09,18,01,25,16.80
2012,09,18,01,26,16.80
2012,09,18,01,27,16.90
2012,09,18,01,28,16.90
2012,09,18,01,29,16.90
2012,09,18,01,30,16.90
2012,09,18,01,31,16.90
2012,09,18,01,32,16.90
2012,09,18,01,33,16.90
2012,09,18,01,34,16.90
2012,09,18,01,35,16.90
2012,09,18,01,36,16.90
2012,09,18,01,37,16.90
2012,09,18,01,38,16.80
2012,09,18,01,39,16.80
2012,09,18,01,40,16.80
2012,09,18,01,41,16.70
2012,09,18,01,42,16.70
2012,09,18,01,43,16.70
2012,09,18,01,44,16.70
2012,09,18,01,45,16.70
2012,09,18,01,46,16.70
2012,09,18,01,47,16.70
2012,09,18,01,48,16.70
2012,09,18,01,49,16.70
2012,09,18,01,50,16.60
2012,09,18,01,51,16.50
2012,09,18,01,52,16.50
2012,09,18,01,53,16.40
2012,09,18,01,54,16.30
2012,09,18,01,55,16.30
2012,09,18,01,56,16.20
2012,09,18,01,57,16.30
2012,09,18,01,58,16.30
2012,09,18,01,59,16.40
2012,09,18,02,00,16.40
2012,09,18,02,01,16.50
2012,09,18,02,02,16.60
2012,09,18,02,03,16.70
2012,09,18,02,04,16.80
2012,09,18,02,05,16.90
2012,09,18,02,06,16.90
2012,09,18,02,07,16.90
2012,09,18,02,08,16.90
2012,09,18,02,09,17.00
2012,09,18,02,10,17.00
2012,09,18,02,11,17.00
2012,09,18,02,12,17.00
2012,09,18,02,13,17.00
2012,09,18,02,14,17.10
2012,09,18,02,15,17.20
2012,09,18,02,16,17.30
2012,09,18,02,17,17.30
2012,09,18,02,18,17.30
2012,09,18,02,19,17.30
2012,09,18,02,20,17.30
2012,09,18,02,21,17.40
2012,09,18,02,22,17.40
2012,09,18,02,23,17.40
2012,09,18,02,24,17.40
2012,09,18,02,25,17.40
2012,09,18,02,26,17.30
2012,09,18,02,27,17.30
2012,09,18,02,28,17.20
2012,09,18,02,29,17.10
2012,09,18,02,30,17.00
2012,09,18,02,31,16.80
2012,09,18,02,32,16.70
2012,09,18,02,33,16.60
2012,09,18,02,34,16.50
2012,09,18,02,35,16.40
2012,09,18,02,36,16.40
2012,09,18,02,37,16.30
2012,09,18,02,38,16.30
2012,09,18,02,39,16.20
2012,09,18,02,40,16.10
2012,09,18,02,41,16.10
2012,09,18,02,42,16.00
2012,09,18,02,43,15.90
2012,09,18,02,44,15.90
2012,09,18,02,45,15.80
2012,09,18,02,46,15.70
2012,09,18,02,47,15.70
2012,09,18,02,48,15.70
2012,09,18,02,49,15.60
2012,09,18,02,50,15.60
2012,09,18,02,51,15.60
2012,09,18,02,52,15.60
2012,09,18,02,53,15.60
2012,09,18,02,54,15.50
2012,09,18,02,55,15.50
2012,09,18,02,56,15.50
2012,09,18,02,57,15.50
2012,09,18,02,58,15.50
2012,09,18,02,59,15.50
2012,09,18,03,00,15.50
2012,09,18,03,01,15.40
2012,09,18,03,02,15.40
2012,09,18,03,03,15.40
2012,09,18,03,04,15.40
2012,09,18,03,05,15.40
2012,09,18,03,06,15.30
2012,09,18,03,07,15.30
2012,09,18,03,08,15.30
2012,09,18,03,09,15.30
2012,09,18,03,10,15.30
2012,09,18,03,11,15.30
2012,09,18,03,12,15.30
2012,09,18,03,13,15.30
2012,09,18,03,14,15.30
2012,09,18,03,15,15.30
2012,09,18,03,16,15.30
2012,09,18,03,17,15.30
2012,09,18,03,18,15.30
2012,09,18,03,19,15.30
2012,09,18,03,20,15.30
2012,09,18,03,21,15.30
2012,09,18,03,22,15.30
2012,09,18,03,23,15.30
2012,09,18,03,24,15.20
2012,09,18,03,25,15.20
2012,09,18,03,26,15.20
2012,09,18,03,27,15.20
2012,09,18,03,28,15.20
2012,09,18,03,29,15.20
2012,09,18,03,30,15.20
2012,09,18,03,31,15.30
2012,09,18,03,32,15.30
2012,09,18,03,33,15.30
2012,09,18,03,34,15.30
2012,09,18,03,35,15.30
2012,09,18,03,36,15.30
2012,09,18,03,37,15.30
2012,09,18,03,38,15.30
2012,09,18,03,39,15.30
2012,09,18,03,40,15.30
2012,09,18,03,41,15.30
2012,09,18,03,42,15.30
2012,09,18,03,43,15.30
2012,09,18,03,44,15.30
2012,09,18,03,45,15.30
2012,09,18,03,46,15.30
2012,09,18,03,47,15.30
2012,09,18,03,48,15.30
2012,09,18,03,49,15.30
2012,09,18,03,50,15.30
2012,09,18,03,51,15.30
2012,09,18,03,52,15.20
2012,09,18,03,53,15.20
2012,09,18,03,54,15.20
2012,09,18,03,55,15.20
2012,09,18,03,56,15.20
2012,09,18,03,57,15.20
2012,09,18,03,58,15.30
2012,09,18,03,59,15.20
2012,09,18,04,00,15.20
2012,09,18,04,01,15.20
2012,09,18,04,02,15.20
2012,09,18,04,03,15.20
2012,09,18,04,04,15.30
2012,09,18,04,05,15.30
2012,09,18,04,06,15.30
2012,09,18,04,07,15.40
2012,09,18,04,08,15.40
2012,09,18,04,09,15.40
2012,09,18,04,10,15.40
2012,09,18,04,11,15.50
2012,09,18,04,12,15.50
2012,09,18,04,13,15.60
2012,09,18,04,14,15.60
2012,09,18,04,15,15.70
2012,09,18,04,16,15.70
2012,09,18,04,17,15.70
2012,09,18,04,18,15.70
2012,09,18,04,19,15.80
2012,09,18,04,20,15.80
2012,09,18,04,21,15.80
2012,09,18,04,22,15.90
2012,09,18,04,23,16.00
2012,09,18,04,24,16.00
2012,09,18,04,25,16.10
2012,09,18,04,26,16.20
2012,09,18,04,27,16.20
2012,09,18,04,28,16.20
2012,09,18,04,29,16.20
2012,09,18,04,30,16.20
2012,09,18,04,31,16.20
2012,09,18,04,32,16.20
2012,09,18,04,33,16.20
2012,09,18,04,34,16.20
2012,09,18,04,35,16.20
2012,09,18,04,36,16.10
2012,09,18,04,37,16.10
2012,09,18,04,38,16.00
2012,09,18,04,39,16.00
2012,09,18,04,40,15.90
2012,09,18,04,41,15.90
2012,09,18,04,42,15.90
2012,09,18,04,43,15.90
2012,09,18,04,44,15.80
2012,09,18,04,45,15.80
2012,09,18,04,46,15.80
2012,09,18,04,47,15.80
2012,09,18,04,48,15.70
2012,09,18,04,49,15.70
2012,09,18,04,50,15.70
2012,09,18,04,51,15.60
2012,09,18,04,52,15.50
2012,09,18,04,53,15.50
2012,09,18,04,54,15.40
2012,09,18,04,55,15.40
2012,09,18,04,56,15.40
2012,09,18,04,57,15.30
2012,09,18,04,58,15.30
2012,09,18,04,59,15.30
2012,09,18,05,00,15.40
2012,09,18,05,01,15.40
2012,09,18,05,02,15.40
2012,09,18,05,03,15.40
2012,09,18,05,04,15.50
2012,09,18,05,05,15.60
2012,09,18,05,06,15.70
2012,09,18,05,07,15.70
2012,09,18,05,08,15.80
2012,09,18,05,09,15.80
2012,09,18,05,10,15.90
2012,09,18,05,11,15.90
2012,09,18,05,12,15.90
2012,09,18,05,13,16.00
2012,09,18,05,14,16.00
2012,09,18,05,15,16.00
2012,09,18,05,16,16.10
2012,09,18,05,17,16.10
2012,09,18,05,18,16.20
2012,09,18,05,19,16.20
2012,09,18,05,20,16.20
2012,09,18,05,21,16.20
2012,09,18,05,22,16.30
2012,09,18,05,23,16.30
2012,09,18,05,24,16.30
2012,09,18,05,25,16.30
2012,09,18,05,26,16.40
2012,09,18,05,27,16.40
2012,09,18,05,28,16.50
2012,09,18,05,29,16.50
2012,09,18,05,30,16.60
2012,09,18,05,31,16.60
2012,09,18,05,32,16.60
2012,09,18,05,33,16.60
2012,09,18,05,34,16.50
2012,09,18,05,35,16.40
2012,09,18,05,36,16.30
2012,09,18,05,37,16.20
2012,09,18,05,38,16.10
2012,09,18,05,39,16.00
2012,09,18,05,40,16.00
2012,09,18,05,41,15.90
2012,09,18,05,42,15.90
2012,09,18,05,43,15.90
2012,09,18,05,44,15.90
2012,09,18,05,45,15.90
2012,09,18,05,46,15.80
2012,09,18,05,47,15.80
2012,09,18,05,48,15.70
2012,09,18,05,49,15.50
2012,09,18,05,50,15.40
2012,09,18,05,51,15.20
2012,09,18,05,52,15.10
2012,09,18,05,53,15.10
2012,09,18,05,54,15.10
2012,09,18,05,55,15.10
2012,09,18,05,56,15.10
2012,09,18,05,57,15.10
2012,09,18,05,58,15.00
2012,09,18,05,59,15.00
2012,09,18,06,00,14.90
2012,09,18,06,01,14.70
2012,09,18,06,02,14.60
2012,09,18,06,03,14.40
2012,09,18,06,04,14.30
2012,09,18,06,05,14.20
2012,09,18,06,06,14.10
2012,09,18,06,07,14.00
2012,09,18,06,08,14.00
2012,09,18,06,09,13.90
2012,09,18,06,10,13.90
2012,09,18,06,11,13.90
2012,09,18,06,12,13.80
2012,09,18,06,13,13.80
2012,09,18,06,14,13.80
2012,09,18,06,15,13.70
2012,09,18,06,16,13.70
2012,09,18,06,17,13.70
2012,09,18,06,18,13.70
2012,09,18,06,19,13.60
2012,09,18,06,20,13.60
2012,09,18,06,21,13.60
2012,09,18,06,22,13.70
2012,09,18,06,23,13.70
2012,09,18,06,24,13.70
2012,09,18,06,25,13.70
2012,09,18,06,26,13.70
2012,09,18,06,27,13.70
2012,09,18,06,28,13.70
2012,09,18,06,29,13.80
2012,09,18,06,30,13.70
2012,09,18,06,31,13.70
2012,09,18,06,32,13.70
2012,09,18,06,33,13.70
2012,09,18,06,34,13.70
2012,09,18,06,35,13.70
2012,09,18,06,36,13.70
2012,09,18,06,37,13.60
2012,09,18,06,38,13.60
2012,09,18,06,39,13.60
2012,09,18,06,40,13.50
2012,09,18,06,41,13.50
2012,09,18,06,42,13.50
2012,09,18,06,43,13.40
2012,09,18,06,44,13.40
2012,09,18,06,45,13.40
2012,09,18,06,46,13.40
2012,09,18,06,47,13.40
2012,09,18,06,48,13.40
2012,09,18,06,49,13.40
2012,09,18,06,50,13.30
2012,09,18,06,51,13.30
2012,09,18,06,52,13.40
2012,09,18,06,53,13.40
2012,09,18,06,54,13.50
2012,09,18,06,55,13.50
2012,09,18,06,56,13.60
2012,09,18,06,57,13.70
2012,09,18,06,58,13.70
2012,09,18,06,59,13.70
2012,09,18,07,00,13.70
2012,09,18,07,01,13.70
2012,09,18,07,02,13.70
2012,09,18,07,03,13.70
2012,09,18,07,04,13.70
2012,09,18,07,05,13.60
2012,09,18,07,06,13.60
2012,09,18,07,07,13.60
2012,09,18,07,08,13.60
2012,09,18,07,09,13.50
2012,09,18,07,10,13.60
2012,09,18,07,11,13.60
2012,09,18,07,12,13.60
2012,09,18,07,13,13.60
2012,09,18,07,14,13.60
2012,09,18,07,15,13.60
2012,09,18,07,16,13.60
2012,09,18,07,17,13.60
2012,09,18,07,18,13.60
2012,09,18,07,19,13.50
2012,09,18,07,20,13.50
2012,09,18,07,21,13.60
2012,09,18,07,22,13.60
2012,09,18,07,23,13.60
2012,09,18,07,24,13.70
2012,09,18,07,25,13.70
2012,09,18,07,26,13.70
2012,09,18,07,27,13.70
2012,09,18,07,28,13.80
2012,09,18,07,29,13.80
2012,09,18,07,30,13.80
2012,09,18,07,31,13.80
2012,09,18,07,32,13.90
2012,09,18,07,33,13.90
2012,09,18,07,34,14.00
2012,09,18,07,35,14.00
2012,09,18,07,36,14.00
2012,09,18,07,37,14.10
2012,09,18,07,38,14.10
2012,09,18,07,39,14.10
2012,09,18,07,40,14.10
2012,09,18,07,41,14.20
2012,09,18,07,42,14.20
2012,09,18,07,43,14.30
2012,09,18,07,44,14.40
2012,09,18,07,45,14.40
2012,09,18,07,46,14.50
2012,09,18,07,47,14.60
2012,09,18,07,48,14.60
2012,09,18,07,49,14.70
2012,09,18,07,50,14.80
2012,09,18,07,51,14.80
2012,09,18,07,52,14.90
2012,09,18,07,53,14.90
2012,09,18,07,54,15.00
2012,09,18,07,55,15.00
2012,09,18,07,56,15.10
2012,09,18,07,57,15.10
2012,09,18,07,58,15.10
2012,09,18,07,59,15.20
2012,09,18,08,00,15.20
2012,09,18,08,01,15.20
2012,09,18,08,02,15.30
2012,09,18,08,03,15.30
2012,09,18,08,04,15.30
2012,09,18,08,05,15.30
2012,09,18,08,06,15.30
2012,09,18,08,07,15.40
2012,09,18,08,08,15.40
2012,09,18,08,09,15.50
2012,09,18,08,10,15.50
2012,09,18,08,11,15.60
2012,09,18,08,12,15.70
2012,09,18,08,13,15.70
2012,09,18,08,14,15.80
2012,09,18,08,15,15.90
2012,09,18,08,16,16.00
2012,09,18,08,17,16.00
2012,09,18,08,18,16.10
2012,09,18,08,19,16.20
2012,09,18,08,20,16.20
2012,09,18,08,21,16.30
2012,09,18,08,22,16.30
2012,09,18,08,23,16.40
2012,09,18,08,24,16.40
2012,09,18,08,25,16.50
2012,09,18,08,26,16.50
2012,09,18,08,27,16.60
2012,09,18,08,28,16.60
2012,09,18,08,29,16.60
2012,09,18,08,30,16.70
2012,09,18,08,31,16.70
2012,09,18,08,32,16.70
2012,09,18,08,33,16.70
2012,09,18,08,34,16.70
2012,09,18,08,35,16.80
2012,09,18,08,36,16.80
2012,09,18,08,37,16.80
2012,09,18,08,38,16.80
2012,09,18,08,39,16.80
2012,09,18,08,40,16.80
2012,09,18,08,41,16.80
2012,09,18,08,42,16.80
2012,09,18,08,43,16.80
2012,09,18,08,44,16.80
2012,09,18,08,45,16.90
2012,09,18,08,46,16.90
2012,09,18,08,47,16.90
2012,09,18,08,48,16.90
2012,09,18,08,49,16.90
2012,09,18,08,50,17.00
2012,09,18,08,51,17.00
2012,09,18,08,52,17.00
2012,09,18,08,53,17.00
2012,09,18,08,54,17.00
2012,09,18,08,55,17.00
2012,09,18,08,56,17.00
2012,09,18,08,57,17.00
2012,09,18,08,58,17.10
2012,09,18,08,59,17.20
2012,09,18,09,00,17.20
2012,09,18,09,01,17.20
2012,09,18,09,02,17.30
2012,09,18,09,03,17.30
2012,09,18,09,04,17.30
2012,09,18,09,05,17.30
2012,09,18,09,06,17.30
2012,09,18,09,07,17.30
2012,09,18,09,08,17.40
2012,09,18,09,09,17.40
2012,09,18,09,10,17.40
2012,09,18,09,11,17.40
2012,09,18,09,12,17.50
2012,09,18,09,13,17.40
2012,09,18,09,14,17.40
2012,09,18,09,15,17.40
2012,09,18,09,16,17.40
2012,09,18,09,17,17.40
2012,09,18,09,18,17.40
2012,09,18,09,19,17.40
2012,09,18,09,20,17.40
2012,09,18,09,21,17.40
2012,09,18,09,22,17.40
2012,09,18,09,23,17.40
2012,09,18,09,24,17.40
2012,09,18,09,25,17.40
2012,09,18,09,26,17.40
2012,09,18,09,27,17.50
2012,09,18,09,28,17.50
2012,09,18,09,29,17.50
2012,09,18,09,30,17.50
2012,09,18,09,31,17.60
2012,09,18,09,32,17.60
2012,09,18,09,33,17.60
2012,09,18,09,34,17.60
2012,09,18,09,35,17.60
2012,09,18,09,36,17.60
2012,09,18,09,37,17.60
2012,09,18,09,38,17.70
2012,09,18,09,39,17.70
2012,09,18,09,40,17.80
2012,09,18,09,41,17.90
2012,09,18,09,42,17.90
2012,09,18,09,43,17.90
2012,09,18,09,44,18.00
2012,09,18,09,45,18.00
2012,09,18,09,46,18.00
2012,09,18,09,47,18.10
2012,09,18,09,48,18.10
2012,09,18,09,49,18.10
2012,09,18,09,50,18.20
2012,09,18,09,51,18.20
2012,09,18,09,52,18.30
2012,09,18,09,53,18.30
2012,09,18,09,54,18.30
2012,09,18,09,55,18.40
2012,09,18,09,56,18.40
2012,09,18,09,57,18.50
2012,09,18,09,58,18.60
2012,09,18,09,59,18.60
2012,09,18,10,00,18.70
2012,09,18,10,01,18.70
2012,09,18,10,02,18.70
2012,09,18,10,03,18.70
2012,09,18,10,04,18.70
2012,09,18,10,05,18.80
2012,09,18,10,06,18.80
2012,09,18,10,07,18.80
2012,09,18,10,08,18.80
2012,09,18,10,09,18.80
2012,09,18,10,10,18.70
2012,09,18,10,11,18.70
2012,09,18,10,12,18.70
2012,09,18,10,13,18.60
2012,09,18,10,14,18.60
2012,09,18,10,15,18.70
2012,09,18,10,16,18.70
2012,09,18,10,17,18.70
2012,09,18,10,18,18.80
2012,09,18,10,19,19.00
2012,09,18,10,20,19.00
2012,09,18,10,21,19.10
2012,09,18,10,22,19.10
2012,09,18,10,23,19.20
2012,09,18,10,24,19.20
2012,09,18,10,25,19.20
2012,09,18,10,26,19.10
2012,09,18,10,27,19.10
2012,09,18,10,28,19.20
2012,09,18,10,29,19.30
2012,09,18,10,30,19.30
2012,09,18,10,31,19.40
2012,09,18,10,32,19.40
2012,09,18,10,33,19.30
2012,09,18,10,34,19.30
2012,09,18,10,35,19.40
2012,09,18,10,36,19.40
2012,09,18,10,37,19.50
2012,09,18,10,38,19.50
2012,09,18,10,39,19.50
2012,09,18,10,40,19.50
2012,09,18,10,41,19.40
2012,09,18,10,42,19.40
2012,09,18,10,43,19.30
2012,09,18,10,44,19.30
2012,09,18,10,45,19.30
2012,09,18,10,46,19.40
2012,09,18,10,47,19.50
2012,09,18,10,48,19.60
2012,09,18,10,49,19.70
2012,09,18,10,50,19.70
2012,09,18,10,51,19.70
2012,09,18,10,52,19.70
2012,09,18,10,53,19.90
2012,09,18,10,54,19.90
2012,09,18,10,55,20.00
2012,09,18,10,56,20.00
2012,09,18,10,57,19.90
2012,09,18,10,58,19.80
2012,09,18,10,59,19.80
2012,09,18,11,00,19.80
2012,09,18,11,01,19.80
2012,09,18,11,02,19.80
2012,09,18,11,03,19.90
2012,09,18,11,04,19.90
2012,09,18,11,05,20.00
2012,09,18,11,06,19.90
2012,09,18,11,07,19.90
2012,09,18,11,08,19.80
2012,09,18,11,09,19.80
2012,09,18,11,10,19.80
2012,09,18,11,11,19.80
2012,09,18,11,12,19.80
2012,09,18,11,13,19.80
2012,09,18,11,14,19.90
2012,09,18,11,15,19.90
2012,09,18,11,16,20.00
2012,09,18,11,17,20.10
2012,09,18,11,18,20.10
2012,09,18,11,19,20.10
2012,09,18,11,20,20.10
2012,09,18,11,21,20.10
2012,09,18,11,22,20.10
2012,09,18,11,23,20.10
2012,09,18,11,24,20.20
2012,09,18,11,25,20.20
2012,09,18,11,26,20.20
2012,09,18,11,27,20.20
2012,09,18,11,28,20.10
2012,09,18,11,29,20.10
2012,09,18,11,30,20.10
2012,09,18,11,31,20.10
2012,09,18,11,32,20.10
2012,09,18,11,33,20.10
2012,09,18,11,34,20.10
2012,09,18,11,35,20.00
2012,09,18,11,36,20.10
2012,09,18,11,37,20.10
2012,09,18,11,38,20.30
2012,09,18,11,39,20.40
2012,09,18,11,40,20.40
2012,09,18,11,41,20.30
2012,09,18,11,42,20.40
2012,09,18,11,43,20.60
2012,09,18,11,44,20.70
2012,09,18,11,45,20.70
2012,09,18,11,46,20.60
2012,09,18,11,47,20.50
2012,09,18,11,48,20.40
2012,09,18,11,49,20.40
2012,09,18,11,50,20.30
2012,09,18,11,51,20.20
2012,09,18,11,52,20.20
2012,09,18,11,53,20.10
2012,09,18,11,54,20.10
2012,09,18,11,55,20.10
2012,09,18,11,56,20.20
2012,09,18,11,57,20.30
2012,09,18,11,58,20.30
2012,09,18,11,59,20.30
2012,09,18,12,00,20.40
2012,09,18,12,01,20.30
2012,09,18,12,02,20.30
2012,09,18,12,03,20.50
2012,09,18,12,04,20.60
2012,09,18,12,05,20.70
2012,09,18,12,06,20.90
2012,09,18,12,07,20.90
2012,09,18,12,08,20.90
2012,09,18,12,09,20.80
2012,09,18,12,10,20.80
2012,09,18,12,11,20.80
2012,09,18,12,12,20.80
2012,09,18,12,13,20.80
2012,09,18,12,14,20.90
2012,09,18,12,15,20.90
2012,09,18,12,16,20.90
2012,09,18,12,17,20.90
2012,09,18,12,18,20.90
2012,09,18,12,19,20.90
2012,09,18,12,20,21.00
2012,09,18,12,21,21.10
2012,09,18,12,22,21.10
2012,09,18,12,23,21.10
2012,09,18,12,24,21.20
2012,09,18,12,25,21.30
2012,09,18,12,26,21.30
2012,09,18,12,27,21.30
2012,09,18,12,28,21.20
2012,09,18,12,29,21.20
2012,09,18,12,30,21.20
2012,09,18,12,31,21.10
2012,09,18,12,32,21.00
2012,09,18,12,33,20.90
2012,09,18,12,34,20.90
2012,09,18,12,35,20.90
2012,09,18,12,36,21.00
2012,09,18,12,37,21.10
2012,09,18,12,38,21.20
2012,09,18,12,39,21.20
2012,09,18,12,40,21.20
2012,09,18,12,41,21.10
2012,09,18,12,42,21.00
2012,09,18,12,43,21.00
2012,09,18,12,44,20.90
2012,09,18,12,45,20.90
2012,09,18,12,46,20.90
2012,09,18,12,47,20.90
2012,09,18,12,48,20.90
2012,09,18,12,49,20.90
2012,09,18,12,50,20.90
2012,09,18,12,51,20.90
2012,09,18,12,52,20.80
2012,09,18,12,53,20.80
2012,09,18,12,54,20.80
2012,09,18,12,55,21.00
2012,09,18,12,56,21.20
2012,09,18,12,57,21.40
2012,09,18,12,58,21.50
2012,09,18,12,59,21.40
2012,09,18,13,00,21.40
2012,09,18,13,01,21.40
2012,09,18,13,02,21.50
2012,09,18,13,03,21.50
2012,09,18,13,04,21.50
2012,09,18,13,05,21.50
2012,09,18,13,06,21.50
2012,09,18,13,07,21.60
2012,09,18,13,08,21.60
2012,09,18,13,09,21.70
2012,09,18,13,10,21.60
2012,09,18,13,11,21.60
2012,09,18,13,12,21.60
2012,09,18,13,13,21.70
2012,09,18,13,14,21.80
2012,09,18,13,15,21.80
2012,09,18,13,16,22.00
2012,09,18,13,17,22.10
2012,09,18,13,18,22.20
2012,09,18,13,19,22.20
2012,09,18,13,20,22.30
2012,09,18,13,21,22.20
2012,09,18,13,22,22.20
2012,09,18,13,23,22.10
2012,09,18,13,24,21.90
2012,09,18,13,25,21.90
2012,09,18,13,26,21.90
2012,09,18,13,27,22.00
2012,09,18,13,28,22.10
2012,09,18,13,29,22.10
2012,09,18,13,30,22.00
2012,09,18,13,31,22.00
2012,09,18,13,32,22.10
2012,09,18,13,33,22.20
2012,09,18,13,34,22.30
2012,09,18,13,35,22.20
2012,09,18,13,36,22.20
2012,09,18,13,37,22.10
2012,09,18,13,38,22.00
2012,09,18,13,39,22.00
2012,09,18,13,40,22.00
2012,09,18,13,41,22.10
2012,09,18,13,42,22.20
2012,09,18,13,43,22.30
2012,09,18,13,44,22.40
2012,09,18,13,45,22.40
2012,09,18,13,46,22.50
2012,09,18,13,47,22.60
2012,09,18,13,48,22.50
2012,09,18,13,49,22.50
2012,09,18,13,50,22.60
2012,09,18,13,51,22.50
2012,09,18,13,52,22.50
2012,09,18,13,53,22.40
2012,09,18,13,54,22.30
2012,09,18,13,55,22.20
2012,09,18,13,56,22.20
2012,09,18,13,57,22.20
2012,09,18,13,58,22.10
2012,09,18,13,59,22.10
2012,09,18,14,00,22.00
2012,09,18,14,01,22.00
2012,09,18,14,02,21.90
2012,09,18,14,03,21.90
2012,09,18,14,04,21.90
2012,09,18,14,05,21.90
2012,09,18,14,06,22.00
2012,09,18,14,07,22.00
2012,09,18,14,08,22.10
2012,09,18,14,09,22.10
2012,09,18,14,10,22.10
2012,09,18,14,11,22.10
2012,09,18,14,12,22.10
2012,09,18,14,13,22.10
2012,09,18,14,14,22.10
2012,09,18,14,15,22.20
2012,09,18,14,16,22.20
2012,09,18,14,17,22.30
2012,09,18,14,18,22.40
2012,09,18,14,19,22.40
2012,09,18,14,20,22.40
2012,09,18,14,21,22.40
2012,09,18,14,22,22.30
2012,09,18,14,23,22.30
2012,09,18,14,24,22.30
2012,09,18,14,25,22.20
2012,09,18,14,26,22.20
2012,09,18,14,27,22.40
2012,09,18,14,28,22.50
2012,09,18,14,29,22.70
2012,09,18,14,30,22.90
2012,09,18,14,31,23.10
2012,09,18,14,32,23.20
2012,09,18,14,33,23.20
2012,09,18,14,34,23.10
2012,09,18,14,35,23.10
2012,09,18,14,36,23.00
2012,09,18,14,37,22.90
2012,09,18,14,38,22.80
2012,09,18,14,39,22.80
2012,09,18,14,40,22.70
2012,09,18,14,41,22.70
2012,09,18,14,42,22.70
2012,09,18,14,43,22.70
2012,09,18,14,44,22.70
2012,09,18,14,45,22.80
2012,09,18,14,46,22.90
2012,09,18,14,47,23.00
2012,09,18,14,48,23.10
2012,09,18,14,49,23.20
2012,09,18,14,50,23.20
2012,09,18,14,51,23.40
2012,09,18,14,52,23.50
2012,09,18,14,53,23.60
2012,09,18,14,54,23.60
2012,09,18,14,55,23.60
2012,09,18,14,56,23.50
2012,09,18,14,57,23.50
2012,09,18,14,58,23.40
2012,09,18,14,59,23.30
2012,09,18,15,00,23.30
2012,09,18,15,01,23.20
2012,09,18,15,02,23.20
2012,09,18,15,03,23.20
2012,09,18,15,04,23.20
2012,09,18,15,05,23.50
2012,09,18,15,06,23.70
2012,09,18,15,07,23.90
2012,09,18,15,08,23.90
2012,09,18,15,09,24.00
2012,09,18,15,10,23.90
2012,09,18,15,11,24.00
2012,09,18,15,12,24.10
2012,09,18,15,13,24.20
2012,09,18,15,14,24.20
2012,09,18,15,15,24.20
2012,09,18,15,16,24.30
2012,09,18,15,17,24.40
2012,09,18,15,18,24.50
2012,09,18,15,19,24.50
2012,09,18,15,20,24.50
2012,09,18,15,21,24.50
2012,09,18,15,22,24.50
2012,09,18,15,23,24.50
2012,09,18,15,24,24.40
2012,09,18,15,25,24.20
2012,09,18,15,26,24.10
2012,09,18,15,27,24.00
2012,09,18,15,28,24.10
2012,09,18,15,29,24.10
2012,09,18,15,30,24.10
2012,09,18,15,31,24.10
2012,09,18,15,32,24.20
2012,09,18,15,33,24.20
2012,09,18,15,34,24.20
2012,09,18,15,35,24.20
2012,09,18,15,36,24.20
2012,09,18,15,37,24.10
2012,09,18,15,38,24.20
2012,09,18,15,39,24.30
2012,09,18,15,40,24.40
2012,09,18,15,41,24.40
2012,09,18,15,42,24.50
2012,09,18,15,43,24.50
2012,09,18,15,44,24.40
2012,09,18,15,45,24.40
2012,09,18,15,46,24.40
2012,09,18,15,47,24.40
2012,09,18,15,48,24.50
2012,09,18,15,49,24.70
2012,09,18,15,50,24.70
2012,09,18,15,51,24.70
2012,09,18,15,52,24.80
2012,09,18,15,53,24.80
2012,09,18,15,54,24.80
2012,09,18,15,55,24.90
2012,09,18,15,56,25.00
2012,09,18,15,57,25.10
2012,09,18,15,58,25.10
2012,09,18,15,59,25.10
2012,09,18,16,00,25.10
2012,09,18,16,01,25.20
2012,09,18,16,02,25.30
2012,09,18,16,03,25.20
2012,09,18,16,04,25.10
2012,09,18,16,05,24.90
2012,09,18,16,06,24.90
2012,09,18,16,07,24.80
2012,09,18,16,08,24.70
2012,09,18,16,09,24.60
2012,09,18,16,10,24.50
2012,09,18,16,11,24.40
2012,09,18,16,12,24.40
2012,09,18,16,13,24.30
2012,09,18,16,14,24.20
2012,09,18,16,15,24.20
2012,09,18,16,16,24.20
2012,09,18,16,17,24.30
2012,09,18,16,18,24.40
2012,09,18,16,19,24.30
2012,09,18,16,20,24.20
2012,09,18,16,21,24.00
2012,09,18,16,22,23.90
2012,09,18,16,23,23.90
2012,09,18,16,24,23.80
2012,09,18,16,25,23.70
2012,09,18,16,26,23.60
2012,09,18,16,27,23.60
2012,09,18,16,28,23.50
2012,09,18,16,29,23.60
2012,09,18,16,30,23.60
2012,09,18,16,31,23.60
2012,09,18,16,32,23.60
2012,09,18,16,33,23.60
2012,09,18,16,34,23.50
2012,09,18,16,35,23.40
2012,09,18,16,36,23.30
2012,09,18,16,37,23.20
2012,09,18,16,38,23.20
2012,09,18,16,39,23.30
2012,09,18,16,40,23.30
2012,09,18,16,41,23.10
2012,09,18,16,42,23.00
2012,09,18,16,43,23.00
2012,09,18,16,44,23.10
2012,09,18,16,45,23.20
2012,09,18,16,46,23.20
2012,09,18,16,47,23.20
2012,09,18,16,48,23.10
2012,09,18,16,49,23.10
2012,09,18,16,50,23.10
2012,09,18,16,51,23.10
2012,09,18,16,52,23.10
2012,09,18,16,53,23.10
2012,09,18,16,54,23.20
2012,09,18,16,55,23.20
2012,09,18,16,56,23.20
2012,09,18,16,57,23.20
2012,09,18,16,58,23.30
2012,09,18,16,59,23.30
2012,09,18,17,00,23.30
2012,09,18,17,01,23.30
2012,09,18,17,02,23.30
2012,09,18,17,03,23.30
2012,09,18,17,04,23.40
2012,09,18,17,05,23.50
2012,09,18,17,06,23.70
2012,09,18,17,07,23.80
2012,09,18,17,08,23.80
2012,09,18,17,09,23.80
2012,09,18,17,10,23.80
2012,09,18,17,11,23.80
2012,09,18,17,12,23.90
2012,09,18,17,13,24.00
2012,09,18,17,14,24.00
2012,09,18,17,15,24.00
2012,09,18,17,16,24.00
2012,09,18,17,17,23.90
2012,09,18,17,18,23.80
2012,09,18,17,19,23.60